Time,TemperatureF,DewpointF,PressureIn,WindDirection,WindDirectionDegrees,WindSpeedMPH,WindSpeedGustMPH,Humidity,HourlyPrecipIn,Conditions,Clouds,dailyrainin,SoftwareType,DateUTC
2013-07-27 00:02:00,43.0,38.0,30.16,ESE,107,0.0,-999.0,82,-99.99,,,-99.99,,2013-07-27 06:02:00,
2013-07-27 00:12:00,43.0,38.0,30.16,ESE,107,0.0,-999.0,83,-99.99,,,-99.99,,2013-07-27 06:12:00,
2013-07-27 00:22:00,42.0,38.0,30.16,ESE,107,0.0,-999.0,85,-99.99,,,-99.99,,2013-07-27 06:22:00,
2013-07-27 00:33:00,42.0,38.0,30.16,ESE,107,0.0,-999.0,85,-99.99,,,-99.99,,2013-07-27 06:33:00,
2013-07-27 00:43:00,42.0,38.0,30.15,ESE,107,0.0,-999.0,85,-99.99,,,-99.99,,2013-07-27 06:43:00,
2013-07-27 00:52:00,42.0,38.0,30.14,ESE,107,0.0,-999.0,85,-99.99,,,-99.99,,2013-07-27 06:52:00,
2013-07-27 01:02:00,42.0,38.0,30.14,ESE,107,0.0,-999.0,85,-99.99,,,-99.99,,2013-07-27 07:02:00,
2013-07-27 01:12:00,42.0,38.0,30.14,ESE,107,0.0,-999.0,86,-99.99,,,-99.99,,2013-07-27 07:12:00,
2013-07-27 01:22:00,42.0,38.0,30.13,ESE,107,0.0,-999.0,86,-99.99,,,-99.99,,2013-07-27 07:22:00,
2013-07-27 01:33:00,42.0,38.0,30.13,ESE,107,0.0,-999.0,86,-99.99,,,-99.99,,2013-07-27 07:33:00,
2013-07-27 01:43:00,42.0,38.0,30.12,ESE,107,0.0,-999.0,86,-99.99,,,-99.99,,2013-07-27 07:43:00,
2013-07-27 01:52:00,42.0,38.0,30.12,ESE,107,0.0,-999.0,87,-99.99,,,-99.99,,2013-07-27 07:52:00,
2013-07-27 02:02:00,42.0,38.0,30.12,ESE,107,0.0,-999.0,87,-99.99,,,-99.99,,2013-07-27 08:02:00,
2013-07-27 02:12:00,41.0,37.0,30.11,ESE,107,0.0,-999.0,87,-99.99,,,-99.99,,2013-07-27 08:12:00,
2013-07-27 02:22:00,41.0,37.0,30.11,ESE,107,0.0,-999.0,87,-99.99,,,-99.99,,2013-07-27 08:22:00,
2013-07-27 02:32:00,41.0,37.0,30.11,ESE,107,0.0,-999.0,87,-99.99,,,-99.99,,2013-07-27 08:32:00,
2013-07-27 02:43:00,40.0,37.0,30.11,ESE,107,0.0,-999.0,88,-99.99,,,-99.99,,2013-07-27 08:43:00,
2013-07-27 02:53:00,40.0,37.0,30.10,ESE,107,0.0,-999.0,88,-99.99,,,-99.99,,2013-07-27 08:53:00,
2013-07-27 03:02:00,40.0,37.0,30.10,ESE,107,0.0,-999.0,88,-99.99,,,-99.99,,2013-07-27 09:02:00,
2013-07-27 03:12:00,39.0,36.0,30.10,ESE,107,0.0,-999.0,88,-99.99,,,-99.99,,2013-07-27 09:12:00,
2013-07-27 03:22:00,39.0,36.0,30.09,ESE,107,0.0,-999.0,89,-99.99,,,-99.99,,2013-07-27 09:22:00,
2013-07-27 03:33:00,39.0,36.0,30.09,ESE,107,0.0,-999.0,89,-99.99,,,-99.99,,2013-07-27 09:33:00,
2013-07-27 03:44:00,39.0,36.0,30.09,ESE,107,0.0,-999.0,90,-99.99,,,-99.99,,2013-07-27 09:44:00,
2013-07-27 03:52:00,39.0,36.0,30.09,ESE,107,0.0,-999.0,90,-99.99,,,-99.99,,2013-07-27 09:52:00,
2013-07-27 04:02:00,39.0,36.0,30.09,ESE,107,0.0,-999.0,90,-99.99,,,-99.99,,2013-07-27 10:02:00,
2013-07-27 04:12:00,40.0,38.0,30.08,ESE,107,0.0,-999.0,91,-99.99,,,-99.99,,2013-07-27 10:12:00,
2013-07-27 04:22:00,40.0,37.0,30.08,ESE,107,0.0,-999.0,90,-99.99,,,-99.99,,2013-07-27 10:22:00,
2013-07-27 04:32:00,40.0,37.0,30.08,ESE,107,0.0,-999.0,90,-99.99,,,-99.99,,2013-07-27 10:32:00,
2013-07-27 04:43:00,40.0,37.0,30.08,ESE,107,0.0,-999.0,88,-99.99,,,-99.99,,2013-07-27 10:43:00,
2013-07-27 04:52:00,39.0,36.0,30.07,ESE,107,0.0,-999.0,90,-99.99,,,-99.99,,2013-07-27 10:52:00,
2013-07-27 05:02:00,39.0,36.0,30.07,ESE,107,0.0,-999.0,90,-99.99,,,-99.99,,2013-07-27 11:02:00,
2013-07-27 05:12:00,39.0,36.0,30.07,ESE,107,0.0,-999.0,90,-99.99,,,-99.99,,2013-07-27 11:12:00,
2013-07-27 05:22:00,38.0,35.0,30.07,ESE,107,0.0,-999.0,90,-99.99,,,-99.99,,2013-07-27 11:22:00,
2013-07-27 05:32:00,38.0,35.0,30.07,ESE,107,0.0,-999.0,90,-99.99,,,-99.99,,2013-07-27 11:32:00,
2013-07-27 05:44:00,38.0,35.0,30.07,ESE,107,0.0,-999.0,90,-99.99,,,-99.99,,2013-07-27 11:44:00,
2013-07-27 05:52:00,38.0,35.0,30.07,ESE,107,0.0,-999.0,90,-99.99,,,-99.99,,2013-07-27 11:52:00,
2013-07-27 06:02:00,38.0,35.0,30.07,ESE,107,0.0,-999.0,90,-99.99,,,-99.99,,2013-07-27 12:02:00,
2013-07-27 06:12:00,37.0,34.0,30.07,ESE,107,0.0,-999.0,90,-99.99,,,-99.99,,2013-07-27 12:12:00,
2013-07-27 06:22:00,37.0,34.0,30.07,ESE,107,0.0,-999.0,90,-99.99,,,-99.99,,2013-07-27 12:22:00,
2013-07-27 06:33:00,37.0,34.0,30.07,ESE,107,0.0,-999.0,90,-99.99,,,-99.99,,2013-07-27 12:33:00,
2013-07-27 06:43:00,36.0,34.0,30.08,ESE,107,0.0,-999.0,91,-99.99,,,-99.99,,2013-07-27 12:43:00,
2013-07-27 06:52:00,37.0,35.0,30.07,ESE,107,0.0,-999.0,92,-99.99,,,-99.99,,2013-07-27 12:52:00,
2013-07-27 07:02:00,37.0,35.0,30.07,ESE,107,0.0,-999.0,92,-99.99,,,-99.99,,2013-07-27 13:02:00,
2013-07-27 07:12:00,37.0,35.0,30.07,ESE,107,0.0,-999.0,92,-99.99,,,-99.99,,2013-07-27 13:12:00,
2013-07-27 07:22:00,38.0,36.0,30.07,ESE,107,0.0,-999.0,93,-99.99,,,-99.99,,2013-07-27 13:22:00,
2013-07-27 07:32:00,38.0,36.0,30.07,ESE,107,0.0,-999.0,93,-99.99,,,-99.99,,2013-07-27 13:32:00,
2013-07-27 07:44:00,40.0,38.0,30.06,ESE,107,0.0,-999.0,94,-99.99,,,-99.99,,2013-07-27 13:44:00,
2013-07-27 07:53:00,43.0,41.0,30.05,ESE,107,0.0,-999.0,94,-99.99,,,-99.99,,2013-07-27 13:53:00,
2013-07-27 08:02:00,43.0,41.0,30.05,ESE,107,0.0,-999.0,94,-99.99,,,-99.99,,2013-07-27 14:02:00,
2013-07-27 08:12:00,45.0,43.0,30.05,ESE,107,0.0,-999.0,94,-99.99,,,-99.99,,2013-07-27 14:12:00,
2013-07-27 08:22:00,47.0,42.0,30.04,ESE,107,0.0,-999.0,84,-99.99,,,-99.99,,2013-07-27 14:22:00,
2013-07-27 08:32:00,47.0,42.0,30.04,ESE,107,0.0,-999.0,84,-99.99,,,-99.99,,2013-07-27 14:32:00,
2013-07-27 08:44:00,50.0,44.0,30.03,ESE,107,0.0,-999.0,80,-99.99,,,-99.99,,2013-07-27 14:44:00,
2013-07-27 08:54:00,52.0,44.0,30.02,ESE,118,0.0,-999.0,75,-99.99,,,-99.99,,2013-07-27 14:54:00,
2013-07-27 09:02:00,52.0,44.0,30.02,ESE,118,0.0,-999.0,75,-99.99,,,-99.99,,2013-07-27 15:02:00,
2013-07-27 09:12:00,54.0,44.0,30.02,ESE,119,0.0,-999.0,70,-99.99,,,-99.99,,2013-07-27 15:12:00,
2013-07-27 09:22:00,56.0,46.0,30.01,SSE,153,0.0,-999.0,69,-99.99,,,-99.99,,2013-07-27 15:22:00,
2013-07-27 09:33:00,56.0,46.0,30.01,SSE,153,0.0,-999.0,69,-99.99,,,-99.99,,2013-07-27 15:33:00,
2013-07-27 09:44:00,59.0,40.0,30.01,SE,128,1.0,-999.0,50,-99.99,,,-99.99,,2013-07-27 15:44:00,
2013-07-27 09:53:00,61.0,40.0,30.00,NE,45,1.0,-999.0,46,-99.99,,,-99.99,,2013-07-27 15:53:00,
2013-07-27 10:02:00,61.0,40.0,30.00,NE,45,1.0,-999.0,46,-99.99,,,-99.99,,2013-07-27 16:02:00,
2013-07-27 10:12:00,62.0,40.0,30.00,East,91,3.0,-999.0,44,-99.99,,,-99.99,,2013-07-27 16:12:00,
2013-07-27 10:22:00,63.0,40.0,29.99,ESE,103,3.0,-999.0,42,-99.99,,,-99.99,,2013-07-27 16:22:00,
2013-07-27 10:33:00,63.0,40.0,29.99,ESE,103,3.0,-999.0,42,-99.99,,,-99.99,,2013-07-27 16:33:00,
2013-07-27 10:43:00,64.0,39.0,29.98,East,82,2.0,-999.0,40,-99.99,,,-99.99,,2013-07-27 16:43:00,
2013-07-27 10:53:00,64.0,40.0,29.97,ESE,109,1.0,-999.0,41,-99.99,,,-99.99,,2013-07-27 16:53:00,
2013-07-27 11:02:00,64.0,40.0,29.97,ESE,109,1.0,-999.0,41,-99.99,,,-99.99,,2013-07-27 17:02:00,
2013-07-27 11:12:00,65.0,41.0,29.97,SSW,208,2.0,-999.0,41,-99.99,,,-99.99,,2013-07-27 17:12:00,
2013-07-27 11:22:00,66.0,41.0,29.97,WSW,240,1.0,-999.0,40,-99.99,,,-99.99,,2013-07-27 17:22:00,
2013-07-27 11:32:00,66.0,41.0,29.97,WSW,240,1.0,-999.0,40,-99.99,,,-99.99,,2013-07-27 17:32:00,
2013-07-27 11:43:00,66.0,41.0,29.96,WNW,292,2.0,-999.0,40,-99.99,,,-99.99,,2013-07-27 17:43:00,
2013-07-27 11:53:00,66.0,40.0,29.96,ENE,65,1.0,-999.0,39,-99.99,,,-99.99,,2013-07-27 17:53:00,
2013-07-27 12:02:00,66.0,40.0,29.96,ENE,65,1.0,-999.0,39,-99.99,,,-99.99,,2013-07-27 18:02:00,
2013-07-27 12:12:00,67.0,41.0,29.96,ENE,70,2.0,-999.0,38,-99.99,,,-99.99,,2013-07-27 18:12:00,
2013-07-27 12:22:00,66.0,40.0,29.96,NNW,333,1.0,-999.0,38,-99.99,,,-99.99,,2013-07-27 18:22:00,
2013-07-27 12:32:00,66.0,40.0,29.96,NNW,333,1.0,-999.0,38,-99.99,,,-99.99,,2013-07-27 18:32:00,
2013-07-27 12:42:00,63.0,44.0,29.95,SE,142,0.0,-999.0,50,-99.99,,,-99.99,,2013-07-27 18:42:00,
2013-07-27 12:52:00,64.0,39.0,29.93,WSW,250,1.0,-999.0,40,-99.99,,,-99.99,,2013-07-27 18:52:00,
2013-07-27 13:02:00,64.0,39.0,29.93,WSW,250,1.0,-999.0,40,-99.99,,,-99.99,,2013-07-27 19:02:00,
2013-07-27 13:12:00,64.0,40.0,29.94,SSW,196,1.0,-999.0,41,-99.99,,,-99.99,,2013-07-27 19:12:00,
2013-07-27 13:22:00,61.0,40.0,29.95,SSW,202,1.0,-999.0,45,-99.99,,,-99.99,,2013-07-27 19:22:00,
2013-07-27 13:32:00,61.0,40.0,29.95,SSW,202,1.0,-999.0,45,-99.99,,,-99.99,,2013-07-27 19:32:00,
2013-07-27 13:52:00,63.0,40.0,29.93,SW,232,2.0,-999.0,43,-99.99,,,-99.99,,2013-07-27 19:52:00,
2013-07-27 14:02:00,63.0,40.0,29.93,SW,232,2.0,-999.0,43,-99.99,,,-99.99,,2013-07-27 20:02:00,
2013-07-27 14:12:00,65.0,41.0,29.93,SE,130,2.0,-999.0,42,-99.99,,,-99.99,,2013-07-27 20:12:00,
2013-07-27 14:22:00,66.0,41.0,29.92,SW,227,1.0,-999.0,40,-99.99,,,-99.99,,2013-07-27 20:22:00,
2013-07-27 14:32:00,66.0,41.0,29.92,SW,227,1.0,-999.0,40,-99.99,,,-99.99,,2013-07-27 20:32:00,
2013-07-27 14:43:00,66.0,40.0,29.91,SSW,211,0.0,-999.0,38,-99.99,,,-99.99,,2013-07-27 20:43:00,
2013-07-27 14:52:00,65.0,41.0,29.91,SSW,202,1.0,-999.0,41,-99.99,,,-99.99,,2013-07-27 20:52:00,
2013-07-27 15:03:00,65.0,41.0,29.91,SSW,202,1.0,-999.0,41,-99.99,,,-99.99,,2013-07-27 21:03:00,
2013-07-27 15:12:00,64.0,39.0,29.90,SE,146,0.0,-999.0,39,-99.99,,,-99.99,,2013-07-27 21:12:00,
2013-07-27 15:22:00,65.0,39.0,29.89,WNW,301,0.0,-999.0,38,-99.99,,,-99.99,,2013-07-27 21:22:00,
2013-07-27 15:33:00,65.0,39.0,29.89,WNW,301,0.0,-999.0,38,-99.99,,,-99.99,,2013-07-27 21:33:00,
2013-07-27 15:42:00,66.0,40.0,29.90,West,260,1.0,-999.0,38,-99.99,,,-99.99,,2013-07-27 21:42:00,
2013-07-27 15:52:00,65.0,39.0,29.88,ESE,115,1.0,-999.0,38,-99.99,,,-99.99,,2013-07-27 21:52:00,
2013-07-27 16:02:00,65.0,39.0,29.88,ESE,115,1.0,-999.0,38,-99.99,,,-99.99,,2013-07-27 22:02:00,
2013-07-27 16:12:00,64.0,39.0,29.89,SE,127,0.0,-999.0,39,-99.99,,,-99.99,,2013-07-27 22:12:00,
2013-07-27 16:22:00,61.0,41.0,29.88,NE,56,2.0,-999.0,47,-99.99,,,-99.99,,2013-07-27 22:22:00,
2013-07-27 16:32:00,61.0,41.0,29.88,NE,56,2.0,-999.0,47,-99.99,,,-99.99,,2013-07-27 22:32:00,
2013-07-27 16:43:00,59.0,40.0,29.88,NE,54,0.0,-999.0,49,-99.99,,,-99.99,,2013-07-27 22:43:00,
2013-07-27 16:53:00,59.0,42.0,29.88,NE,54,0.0,-999.0,53,-99.99,,,-99.99,,2013-07-27 22:53:00,
2013-07-27 17:02:00,59.0,42.0,29.88,NE,54,0.0,-999.0,53,-99.99,,,-99.99,,2013-07-27 23:02:00,
2013-07-27 17:12:00,58.0,41.0,29.88,NE,45,4.0,-999.0,53,-99.99,,,-99.99,,2013-07-27 23:12:00,
2013-07-27 17:22:00,57.0,40.0,29.86,NE,56,2.0,-999.0,53,-99.99,,,-99.99,,2013-07-27 23:22:00,
2013-07-27 17:32:00,57.0,40.0,29.86,NE,56,2.0,-999.0,53,-99.99,,,-99.99,,2013-07-27 23:32:00,
2013-07-27 17:44:00,58.0,40.0,29.86,NE,53,0.0,-999.0,51,-99.99,,,-99.99,,2013-07-27 23:44:00,
2013-07-27 17:52:00,59.0,41.0,29.86,NE,51,0.0,-999.0,51,-99.99,,,-99.99,,2013-07-27 23:52:00,
2013-07-27 18:02:00,59.0,41.0,29.86,NE,51,0.0,-999.0,51,-99.99,,,-99.99,,2013-07-28 00:02:00,
2013-07-27 18:12:00,59.0,41.0,29.85,NE,51,0.0,-999.0,51,-99.99,,,-99.99,,2013-07-28 00:12:00,
2013-07-27 18:22:00,58.0,41.0,29.85,NE,51,0.0,-999.0,53,-99.99,,,-99.99,,2013-07-28 00:22:00,
2013-07-27 18:32:00,58.0,41.0,29.85,NE,51,0.0,-999.0,53,-99.99,,,-99.99,,2013-07-28 00:32:00,
2013-07-27 18:44:00,58.0,41.0,29.85,NW,308,0.0,-999.0,53,-99.99,,,-99.99,,2013-07-28 00:44:00,
2013-07-27 18:53:00,57.0,42.0,29.86,SSW,194,0.0,-999.0,58,-99.99,,,-99.99,,2013-07-28 00:53:00,
2013-07-27 19:02:00,57.0,42.0,29.86,SSW,194,0.0,-999.0,58,-99.99,,,-99.99,,2013-07-28 01:02:00,
2013-07-27 19:12:00,56.0,42.0,29.88,SSW,194,0.0,-999.0,59,-99.99,,,-99.99,,2013-07-28 01:12:00,
2013-07-27 19:22:00,54.0,46.0,29.90,SSW,193,0.0,-999.0,75,-99.99,,,-99.99,,2013-07-28 01:22:00,
2013-07-27 19:32:00,54.0,46.0,29.90,SSW,193,0.0,-999.0,75,-99.99,,,-99.99,,2013-07-28 01:32:00,
2013-07-27 19:43:00,51.0,46.0,29.91,SSW,193,0.0,-999.0,82,-99.99,,,-99.99,,2013-07-28 01:43:00,
2013-07-27 19:53:00,50.0,46.0,29.90,SSW,193,0.0,-999.0,85,-99.99,,,-99.99,,2013-07-28 01:53:00,
2013-07-27 20:02:00,50.0,46.0,29.90,SSW,193,0.0,-999.0,85,-99.99,,,-99.99,,2013-07-28 02:02:00,
2013-07-27 20:12:00,49.0,45.0,29.91,SSW,193,0.0,-999.0,87,-99.99,,,-99.99,,2013-07-28 02:12:00,
2013-07-27 20:22:00,48.0,45.0,29.90,SSW,193,0.0,-999.0,89,-99.99,,,-99.99,,2013-07-28 02:22:00,
2013-07-27 20:32:00,48.0,45.0,29.90,SSW,193,0.0,-999.0,89,-99.99,,,-99.99,,2013-07-28 02:32:00,
2013-07-27 20:42:00,48.0,45.0,29.91,SSW,193,0.0,-999.0,90,-99.99,,,-99.99,,2013-07-28 02:42:00,
2013-07-27 20:53:00,48.0,45.0,29.90,SSW,193,0.0,-999.0,90,-99.99,,,-99.99,,2013-07-28 02:53:00,
2013-07-27 21:02:00,48.0,45.0,29.90,SSW,193,0.0,-999.0,90,-99.99,,,-99.99,,2013-07-28 03:02:00,
2013-07-27 21:12:00,48.0,45.0,29.91,SSW,193,0.0,-999.0,90,-99.99,,,-99.99,,2013-07-28 03:12:00,
2013-07-27 21:22:00,48.0,45.0,29.90,SSW,193,0.0,-999.0,91,-99.99,,,-99.99,,2013-07-28 03:22:00,
2013-07-27 21:32:00,48.0,45.0,29.90,SSW,193,0.0,-999.0,91,-99.99,,,-99.99,,2013-07-28 03:32:00,
2013-07-27 21:42:00,47.0,44.0,29.91,SSW,193,0.0,-999.0,88,-99.99,,,-99.99,,2013-07-28 03:42:00,
2013-07-27 21:52:00,46.0,43.0,29.91,SSW,193,0.0,-999.0,88,-99.99,,,-99.99,,2013-07-28 03:52:00,
2013-07-27 22:02:00,46.0,43.0,29.91,SSW,193,0.0,-999.0,88,-99.99,,,-99.99,,2013-07-28 04:02:00,
2013-07-27 22:12:00,45.0,42.0,29.92,SSW,193,0.0,-999.0,89,-99.99,,,-99.99,,2013-07-28 04:12:00,
2013-07-27 22:22:00,45.0,42.0,29.92,SSW,193,0.0,-999.0,90,-99.99,,,-99.99,,2013-07-28 04:22:00,
2013-07-27 22:32:00,45.0,42.0,29.92,SSW,193,0.0,-999.0,90,-99.99,,,-99.99,,2013-07-28 04:32:00,
2013-07-27 22:43:00,45.0,43.0,29.92,SSW,193,0.0,-999.0,91,-99.99,,,-99.99,,2013-07-28 04:43:00,
2013-07-27 22:53:00,45.0,43.0,29.92,SSW,193,0.0,-999.0,92,-99.99,,,-99.99,,2013-07-28 04:53:00,
2013-07-27 23:02:00,45.0,43.0,29.92,SSW,193,0.0,-999.0,92,-99.99,,,-99.99,,2013-07-28 05:02:00,
2013-07-27 23:12:00,45.0,43.0,29.91,SSW,193,0.0,-999.0,92,-99.99,,,-99.99,,2013-07-28 05:12:00,
2013-07-27 23:22:00,45.0,43.0,29.91,SSW,193,0.0,-999.0,92,-99.99,,,-99.99,,2013-07-28 05:22:00,
2013-07-27 23:32:00,45.0,43.0,29.91,SSW,193,0.0,-999.0,92,-99.99,,,-99.99,,2013-07-28 05:32:00,
2013-07-27 23:43:00,46.0,44.0,29.90,SSW,193,0.0,-999.0,92,-99.99,,,-99.99,,2013-07-28 05:43:00,
2013-07-27 23:52:00,46.0,44.0,29.90,SSW,193,0.0,-999.0,92,-99.99,,,-99.99,,2013-07-28 05:52:00,